Date String (YYYY-MM-DD hh:mm:ss) UTC,Instrument flags,Ambient pressure (hPa),Sample flow (lpm),Bypass flow (lpm),Sample temperature (°C),Ambient temperature (°C),ASC tube jacket temperature (°C),LED temperature (°C),Box temperature (°C),Sample RH (%),Span deviation,Mass concentration (μg/m³),Mass concentration (μg/m³),Mass concentration (μg/m³)
DateTimeUTC,F1_M11,P_M11,Q1_M11,Q2_M11,T1_M11,T2_M11,T3_M11,T4_M11,T5_M11,U1_M11,ZSPAN_M11,X0_M11,X2_M11,X1_M11
2023-01-25 23:00:00,,0827.7,5.01,0.00,21.3,19.4,00.0,30.1,22.8,11.6,0000.0,0006.67,0003.45,0003.20
2023-01-25 23:01:00,,0827.8,4.99,0.00,21.3,19.3,00.0,30.1,22.8,11.9,0000.0,0006.60,0003.47,0003.22
2023-01-25 23:02:00,,0827.8,4.99,0.00,21.2,19.3,00.0,30.1,22.8,11.9,0000.0,0006.51,0003.48,0003.24
2023-01-25 23:03:00,,0827.9,5.00,0.00,21.2,19.3,00.0,30.1,22.8,11.7,0000.0,0006.62,0003.51,0003.27
2023-01-25 23:04:00,,0827.9,5.00,0.00,21.2,19.3,00.0,30.1,22.7,11.7,0000.0,0006.65,0003.53,0003.29
2023-01-25 23:05:00,,0827.9,5.00,0.00,21.2,19.3,00.0,30.1,22.7,11.6,0000.0,0006.75,0003.55,0003.31
2023-01-25 23:06:00,,0827.9,5.00,0.00,21.2,20.4,00.0,30.0,22.9,11.5,0000.0,0006.83,0003.57,0003.33
2023-01-25 23:07:00,,0827.8,5.01,0.00,21.3,21.7,00.0,30.1,23.2,11.5,0000.0,0006.29,0003.57,0003.33
2023-01-25 23:08:00,,0827.9,4.99,0.00,21.5,21.9,00.0,30.1,23.4,11.3,0000.0,0005.19,0003.55,0003.33
2023-01-25 23:09:00,,0827.9,5.00,0.00,21.5,21.5,00.0,30.1,23.4,11.0,0000.0,0004.85,0003.51,0003.33
2023-01-25 23:10:00,,0827.9,5.01,0.00,21.5,21.2,00.0,30.2,23.4,11.2,0000.0,0004.83,0003.51,0003.33
2023-01-25 23:11:00,,0828.0,5.00,0.00,21.6,21.0,00.0,30.2,23.4,11.3,0000.0,0004.90,0003.53,0003.33
2023-01-25 23:12:00,,0827.9,5.00,0.00,21.6,20.9,00.0,30.2,23.4,11.3,0000.0,0005.09,0003.55,0003.34
2023-01-25 23:13:00,,0828.0,4.99,0.00,21.6,20.8,00.0,30.2,23.4,11.3,0000.0,0005.19,0003.57,0003.34
2023-01-25 23:14:00,,0828.0,4.99,0.00,21.6,20.8,00.0,30.2,23.4,11.4,0000.0,0005.22,0003.57,0003.33
2023-01-25 23:15:00,,0828.0,5.02,0.00,21.6,20.7,00.0,30.3,23.5,11.5,0000.0,0005.98,0003.59,0003.32
2023-01-25 23:16:00,,0828.0,5.01,0.00,21.7,20.7,00.0,30.3,23.5,11.4,0000.0,0006.64,0003.59,0003.31
2023-01-25 23:17:00,,0827.9,5.00,0.00,21.7,20.8,00.0,30.3,23.5,11.0,0000.0,0006.61,0003.58,0003.30
2023-01-25 23:18:00,,0827.9,5.01,0.00,21.7,20.7,00.0,30.3,23.5,10.8,0000.0,0006.70,0003.58,0003.29
2023-01-25 23:19:00,,0827.9,5.00,0.00,21.7,20.7,00.0,30.4,23.5,10.8,0000.0,0006.73,0003.59,0003.30
2023-01-25 23:20:00,,0828.0,4.99,0.00,21.7,20.6,00.0,30.4,23.5,10.8,0000.0,0006.88,0003.62,0003.30
2023-01-25 23:21:00,,0827.9,5.01,0.00,21.7,20.6,00.0,30.4,23.5,10.8,0000.0,0006.92,0003.60,0003.28
2023-01-25 23:22:00,,0827.9,4.99,0.00,21.7,20.5,00.0,30.4,23.5,10.6,0000.0,0006.93,0003.59,0003.27
2023-01-25 23:23:00,,0827.9,4.98,0.00,21.7,20.3,00.0,30.4,23.4,10.6,0000.0,0006.89,0003.59,0003.26
2023-01-25 23:24:00,,0828.0,5.01,0.00,21.7,20.2,00.0,30.4,23.4,10.7,0000.0,0006.89,0003.58,0003.24
2023-01-25 23:25:00,,0828.0,5.00,0.00,21.7,20.2,00.0,30.4,23.4,10.8,0000.0,0007.05,0003.56,0003.23
2023-01-25 23:26:00,,0828.0,4.98,0.00,21.7,20.3,00.0,30.4,23.4,10.8,0000.0,0006.61,0003.53,0003.22
2023-01-25 23:27:00,,0828.0,5.03,0.00,21.7,20.3,00.0,30.4,23.5,10.7,0000.0,0005.65,0003.50,0003.20
2023-01-25 23:28:00,,0828.0,4.97,0.00,21.7,20.3,00.0,30.4,23.5,10.5,0000.0,0005.53,0003.47,0003.18
2023-01-25 23:29:00,,0827.9,5.01,0.00,21.7,20.3,00.0,30.4,23.4,09.3,0000.0,0005.31,0003.40,0003.13
2023-01-25 23:30:00,,0828.0,5.00,0.00,21.7,20.2,00.0,30.5,23.4,10.4,0000.0,0005.40,0003.40,0003.08
2023-01-25 23:31:00,,0827.9,5.00,0.00,21.7,20.1,00.0,30.4,23.4,08.7,0000.0,0005.21,0003.34,0002.99
2023-01-25 23:32:00,,0827.9,5.00,0.00,21.7,20.1,00.0,30.4,23.4,07.4,0000.0,0004.81,0003.20,0002.78
2023-01-25 23:33:00,,0827.9,5.00,0.00,21.7,20.2,00.0,30.4,23.4,07.4,0000.0,0004.42,0003.01,0002.56
2023-01-25 23:34:00,,0827.9,4.98,0.00,21.7,20.3,00.0,30.4,23.4,07.4,0000.0,0004.04,0002.73,0002.34
2023-01-25 23:35:00,,0827.9,5.01,0.00,21.7,20.4,00.0,30.4,23.5,07.9,0000.0,0003.63,0002.51,0002.17
2023-01-25 23:36:00,,0827.9,4.99,0.00,21.7,20.4,00.0,30.4,23.5,07.3,0000.0,0003.10,0002.28,0001.98
2023-01-25 23:37:00,,0827.9,5.00,0.00,21.7,20.5,00.0,30.4,23.5,07.5,0000.0,0002.75,0002.06,0001.80
2023-01-25 23:38:00,,0828.0,5.00,0.00,21.7,20.6,00.0,30.4,23.5,07.6,0000.0,0002.48,0001.88,0001.64
2023-01-25 23:39:00,,0828.0,5.00,0.00,21.8,20.6,00.0,30.5,23.6,07.5,0000.0,0002.28,0001.70,0001.48
2023-01-25 23:40:00,,0828.0,5.00,0.00,21.8,20.6,00.0,30.5,23.6,07.9,0000.0,0002.27,0001.63,0001.40
2023-01-25 23:41:00,,0827.9,5.00,0.00,21.8,20.6,00.0,30.5,23.6,07.1,0000.0,0002.03,0001.42,0001.23
2023-01-25 23:42:00,,0827.9,5.01,0.00,21.8,20.6,00.0,30.5,23.6,06.5,0000.0,0001.82,0001.24,0001.07
2023-01-25 23:43:00,,0827.9,5.00,0.00,21.8,20.5,00.0,30.5,23.6,06.0,0000.0,0001.74,0001.19,0001.04
2023-01-25 23:44:00,,0827.9,5.00,0.00,21.8,20.5,00.0,30.5,23.6,05.9,0000.0,0001.71,0001.16,0001.00
2023-01-25 23:45:00,,0827.8,5.00,0.00,21.8,20.4,00.0,30.5,23.6,05.9,0000.0,0001.66,0001.12,0000.95
2023-01-25 23:46:00,,0827.9,4.99,0.00,21.8,20.3,00.0,30.5,23.5,06.2,0000.0,0001.63,0001.05,0000.87
2023-01-25 23:47:00,,0827.9,5.00,0.00,21.8,20.2,00.0,30.5,23.5,06.2,0000.0,0001.54,0000.97,0000.80
2023-01-25 23:48:00,,0828.0,4.99,0.00,21.7,20.1,00.0,30.5,23.4,06.0,0000.0,0001.45,0000.89,0000.73
2023-01-25 23:49:00,,0827.9,5.01,0.00,21.7,20.1,00.0,30.5,23.4,06.0,0000.0,0001.34,0000.80,0000.64
2023-01-25 23:50:00,,0828.0,5.02,0.00,21.7,20.1,00.0,30.5,23.4,06.2,0000.0,0001.29,0000.75,0000.57
2023-01-25 23:51:00,,0828.1,5.01,0.00,21.7,20.0,00.0,30.5,23.4,06.4,0000.0,0001.08,0000.64,0000.49
2023-01-25 23:52:00,,0827.9,5.00,0.00,21.7,20.1,00.0,30.5,23.4,06.1,0000.0,0000.87,0000.56,0000.43
2023-01-25 23:53:00,,0828.0,4.99,0.00,21.7,20.1,00.0,30.4,23.4,06.2,0000.0,0000.86,0000.54,0000.42
2023-01-25 23:54:00,,0828.0,5.00,0.00,21.7,20.1,00.0,30.4,23.4,06.2,0000.0,0000.83,0000.52,0000.41
2023-01-25 23:55:00,,0828.0,5.00,0.00,21.6,20.0,00.0,30.4,23.4,06.1,0000.0,0000.82,0000.52,0000.41
2023-01-25 23:56:00,,0828.0,5.00,0.00,21.6,20.1,00.0,30.4,23.3,06.2,0000.0,0000.78,0000.50,0000.41
2023-01-25 23:57:00,,0828.0,5.00,0.00,21.7,20.5,00.0,30.4,23.4,06.1,0000.0,0000.67,0000.47,0000.40
2023-01-25 23:58:00,,0828.1,5.00,0.00,21.7,21.6,00.0,30.4,23.7,05.8,0000.0,0000.66,0000.47,0000.40
2023-01-25 23:59:00,,0828.1,5.01,0.00,21.9,22.4,00.0,30.5,23.9,05.8,0000.0,0001.53,0000.48,0000.40
